Flag for Madagascar Weather past 2 weeks in Toamasina, Madagascar

Now
72 °F

Scattered showers. Partly cloudy.


Feels Like: 67 °F
Forecast: 67 / 75 °F
Wind: No wind

Location: Tamatave

Current Time: Aug 20, 2014 at 9:49:00 PM

Latest Report: Aug 20, 2014 at 8:00 PM


Visibility: N/A

Pressure: 30.15 "Hg

Humidity: 94%

Dew point: 70 °F

Location of ToamasinaLocation

Historic Weather in Toamasina — Graph

°F

Toamasina temperature yesterday

Maximum temperature yesterday: 81 °F (at 12:00 PM)
Minimum temperature yesterday: 64 °F (at 2:00 AM)
Average temperature yesterday: 71 °F

Past Weeks' High & Low Weather Summary

 TemperatureHumidityPressure
High81 °F (Aug 15, 12:00 PM)100% (Aug 5, 9:00 PM)30.24 "Hg (Aug 5, 9:00 PM)
Low61 °F (Aug 17, 12:00 AM)57% (Aug 16, 5:00 PM)30.12 "Hg (Aug 6, 2:00 PM)
Average71 °F84%30.18 "Hg
* Reported Aug 5 8:00 PM — Aug 20 8:00 PM, Toamasina, Weather by CustomWeather, © 2014

Note: Actual official high and low records may vary slightly from our data, if they occured in-between our weather recording intervals... More about our weather records

Advertising

Toamasina weather history for previous 24 hours

 ConditionsComfort  
Time TempWeatherWind HumidityBarometerVisibility
8:00 PM
Aug 20
72 °FScattered showers. Partly cloudy.No wind94%30.15 "HgN/A
7:00 PM72 °FPassing clouds.2 mph88%30.15 "HgN/A
6:00 PM73 °FPassing clouds.2 mph89%30.12 "HgN/A
5:00 PM77 °FScattered showers. Partly sunny.5 mph74%30.12 "HgN/A
4:00 PM79 °FScattered showers. Broken clouds.5 mph70%30.12 "HgN/A
3:00 PM77 °FScattered showers. Broken clouds.5 mph74%30.12 "HgN/A
2:00 PM77 °FScattered showers. Broken clouds.5 mph74%30.15 "HgN/A
1:00 PM75 °FScattered showers. Broken clouds.7 mph74%30.15 "Hg6 mi
12:00 PM75 °FScattered showers. Partly sunny.9 mph78%30.18 "Hg6 mi
11:00 AM75 °FBroken clouds.9 mph83%30.21 "HgN/A
10:00 AM72 °FDrizzle. Broken clouds.9 mph88%30.24 "Hg3 mi
9:00 AM70 °FDrizzle. Broken clouds.9 mph100%30.21 "Hg4 mi
8:00 AM70 °FDrizzle. Broken clouds.7 mph88%30.21 "Hg4 mi
7:00 AM68 °FScattered showers. Partly sunny.5 mph94%30.21 "HgN/A
6:00 AM68 °FScattered showers. Broken clouds.7 mph94%30.21 "HgN/A
5:00 AM66 °FScattered showers. Partly cloudy.7 mph100%30.18 "HgN/A
4:00 AM68 °FScattered showers. Partly cloudy.7 mph94%30.18 "HgN/A
3:00 AM68 °FScattered showers. Partly cloudy.7 mph94%30.18 "HgN/A
1:00 AM68 °FScattered showers. Partly cloudy.2 mph94%30.21 "HgN/A
12:00 AM68 °FScattered showers. Partly cloudy.2 mph94%30.21 "HgN/A
11:00 PM
Aug 19
66 °FScattered showers. Partly cloudy.5 mph100%30.21 "HgN/A
10:00 PM66 °FPassing clouds.5 mph100%30.21 "HgN/A
9:00 PM68 °FPassing clouds.2 mph94%30.21 "HgN/A
Weather by CustomWeather, © 2014

See weather overviewHow to use our weather pages